Regional Weather Roundup
Issued by NWS

Home | Current Version | Previous Version | Graphics & Text | Print | Product List | Glossary On
Versions: 1 2 3 4 5 6 7 8 9 10 11 12 13 14 15 16 17 18 19 20 21 22 23 24 25 26 27 28 29 30 31 32 33 34 35 36 37 38 39 40 41 42 43 44 45 46 47 48 49 50
000
ASUS45 KSLC 300810
RWRUT

UTAH REGIONAL WEATHER ROUNDUP
NATIONAL WEATHER SERVICE SALT LAKE CITY UT
200 AM MDT SAT AUG 30 2014

UTZ001>011-023>025-300900-

NORTHERN UTAH

CITY           SKY/WX    TMP DP  RH WIND       PRES   REMARKS
HILL AFB       PTCLDY    72  41  32 E15       29.95F
LOGAN          CLEAR     58  53  84 W5        29.93F
OGDEN          CLEAR     72  41  32 S10       29.92S
PROVO AIRPORT  MOCLDY    70  45  40 SE9       29.99S
SALT LAKE CITY PTCLDY    74  42  31 S14       29.92S
VERNAL         CLEAR     57  45  64 CALM      30.13R
WENDOVER       MOCLDY    79  34  19 NW14      29.92R
HEBER CITY     MOCLDY    55  45  67 CALM      30.09F
WEST JORDAN    CLEAR     75  48  38 S13       29.96F

$$

UTZ012>022-026-027-300900-

SOUTHERN UTAH

CITY           SKY/WX    TMP DP  RH WIND       PRES   REMARKS
BRYCE CANYON   PTCLDY    46  41  82 W5        30.29S
CEDAR CITY     MOCLDY    65  34  31 SE3       30.09S
MILFORD        PTCLDY    69  35  28 SW12      30.03S
MOAB/CYNLANDS  CLEAR     70  41  34 CALM      30.03S
PRICE          MOCLDY    63  42  46 N6        30.14S
ST GEORGE      PTSUNNY   79  37  22 E7        29.91S

$$

REGIONAL REPORTS     COLORADO/ARIZONA

CITY           SKY/WX    TMP DP  RH WIND       PRES   REMARKS
CRAIG, CO      CLEAR     51  47  86 CALM      30.18S
GRAND JUNCTION PTCLDY    62  49  62 SE9       30.09S
RIFLE          CLEAR     56  48  74 CALM      30.17S
MONTROSE       MOCLDY    61  44  53 SE9       30.19S
CORTEZ         CLEAR     51  45  79 E5        30.18F
PAGE, AZ       PTCLDY    73  32  22 CALM      30.03R
GRAND CANYON     N/A    N/A N/A N/A MISG        N/A
KINGMAN        CLEAR     76  32  20 SW5       29.95S
FLAGSTAFF      CLEAR     49  42  77 CALM      30.27S

$$

REGIONAL REPORTS    NEVADA/IDAHO/WYOMING

CITY           SKY/WX    TMP DP  RH WIND       PRES   REMARKS
LAS VEGAS, NV  MOCLDY    88  28  11 S9        29.77S
ELY            PTCLDY    55  34  45 S10       30.12R
ELKO           CLEAR     59  36  42 CALM      30.00S
POCATELLO, ID  CLEAR     67  46  47 CALM      29.92F
BURLEY         PTCLDY    61  52  72 CALM      29.87F
EVANSTON, WY   PTCLDY    56  40  55 S9        30.16F
ROCK SPRINGS   PTCLDY    60  35  39 SW8       30.14F

$$


USA.gov is the U.S. government's official web portal to all federal, state and local government web resources and services.